EHI
0 0 0 0 0 0 0 0 0 0 0 0 0 0 0 0 0 0 0 0 0 0 0 0 0 0 0 0 0 0 0 0 0 0 0 0 0 0 0 0 0 0 0 0
0 0 0 0 0 0 0 0 0 0 0 0 0 0 0 0 0 0 0 0 0 0 0 0 0 0 0 0 0 0 0 0 0 0 0 0 0 0 0 0 0 0 0 0
0 0 0 0 0 0 0 0 0 0 0 0 0 0 0 0 0 0 0 0 0 0 0 0 0 0 0 0 0 0 0 0 0 0 0 0 0 0 0 0 0 0 0 0
0 0 0 0 0 0 0 0 0 0 0 0 0 0 0 0 0 0 0 0 0 0 0 0 0 0 0 0 0 0 0 0 0 0 0 0 0 0 0 0 0 0 0 0
0 0 0 0 0 0 0 0 0 0 0 0 0 0 0 0 0 0 0 0 0 0 0 0 0 0 0 0 0 0 0 0 0 0 0 0 0 0 0 0 0 0 0 0
0 0 0 0 0 0 0 0 0 0 0 0 0 0 0 0 0 0 0 0 0 0 0 0 0 0 0 0 0 0 0 0 0 0 0 0 0 0 0 0 0 0 0 0
0 0 0 0 0 0 0 0 0 0 0 0 0 0 0 0 0 0 0 0 0 0 0 0 0 0 0 0 0 0 0 0 0 0 0 0 0 0 0 0 0 0 0 0
0 0 0 0 0 0 0 0 0 0 0 0 0 0 0 0 0 0 0 0 0 0 0 0 0 0 0 0 0 0 0 0 0 0 0 0 0 0 0 0 0 0 0 0
0 0 0 0 0 0 0 0 0 0 0 0 0 0 0 0 0 0 0 0 0 0 0 0 0 0 0 0 0 0 0 0 0 0 0 0 0 0 0 0 0 0 0 0
0 0 0 0 0 0 0 0 0 0 0 0 0 0 0 0 0 0 0 0 0 0 0 0 0 0 0 0 0 0 0 0 0 0 0 0 0 0 0 0 0 0 0 0
0 0 0 0 0 0 0 0 0 0 0 0 0 0 0 0 0 0 0 0 0 0 0 0 0 0 0 0 0 0 0 0 0 0 0 0 0 0 0 0 0 0 0 0
0 0 0 0 0 0 0 0 0 0 0 0 0 0 0 0 0 0 0 0 0 0 0 0 0 0 0 0 0 0 0 0 0 0 0 0 0 0 0 0 0 0 0 0
0 0 0 0 0 0 0 0 0 0 0 0 0 0 0 0 0 0 0 0 0 0 0 0 0 0 0 0 0 0 0 0 0 0 0 0 0 0 0 0 0 0 0 0
0 0 0 0 0 0 0 0 0 0 0 0 0 0 0 0 0 0 0 0 0 0 0 0 0 0 0 0 0 0 0 0 0 0 0 0 0 0 0 0 0 0 0 0
0 0 0 0 0 0 0 0 0 0 0 0 0 0 0 0 0 0 0 0 0 0 0 0 0 0 0 0 0 0 0 0 0 0 0 0 0 0 0 0 0 0 0 0
0 0 0 0 0 0 0 0 0 0 0 0 0 0 0 0 0 0 0 0 0 0 0 0 0 0 0 0 0 0 0 0 0 0 0 0 0 0 0 0 0 0 0 0
0 0 0 0 0 0 0 0 0 0 0 0 0 0 0 0 0 0 0 0 0 0 0 0 0 0 0 0 0 0 0 0 0 0 0 0 0 0 0 0 0 0 0 0
0 0 0 0 0 0 0 0 0 0 0 0 0 0 0 0 0 0 0 0 0 0 0 0 0 0 0 0 0 0 0 0 0 0 0 0 0 0 0 0 0 0 0 0
0 0 0 0 0 0 0 0 0 0 0 0 0 0 0 0 0 0 0 0 0 0 0 0 0 0 0 0 0 0 0 0 0 0 0 0 0 0 0 0 0 0 0 0
0 0 0 0 0 0 0 0 0 0 0 0 0 0 0 0 0 0 0 0 0 0 0 0 0 0 0 0 0 0 0 0 0 0 0 0 0 0 0 0 0 0 0 0
0 0 0 0 0 0 0 0 0 0 0 0 0 0 0 0 0 0 0 0 0 0 0 0 0 0 0 0 0 0 0 0 0 0 0 0 0 0 0 0 0 0 0 0
0 0 0 0 0 0 0 0 0 0 0 0 0 0 0 0 0 0 0 0 0 0 0 0 0 0 0 0 0 0 0 0 0 0 0 0 0 0 0 0 0 0 0 0
0 0 0 0 0 0 0 0 0 0 0 0 0 0 0 0 0 0 0 0 0 0 0 0 0 0 0 0 0 0 0 0 0 0 0 0 0 0 0 0 0 0 0 0
0 0 0 0 0 0 0 0 0 0 0 0 0 0 0 0 0 0 0 0 0 0 0 0 0 0 0 0 0 0 0 0 0 0 0 0 0 0 0 0 0 0 0 0
0 0 0 0 0 0 0 0 0 0 0 0 0 0 0 0 0 0 0 0 0 0 0 0 0 0 0 0 0 0 0 0 0 0 0 0 0 0 0 0 0 0 0 0
0 0 0 0 0 0 0 0 0 0 0 0 0 0 0 0 0 0 0 0 0 0 0 0 0 0 0 0 0 0 0 0 0 0 0 0 0 0 0 0 0 0 0 0
0 0 0 0 0 0 0 0 0 0 0 0 0 0 0 0 0 0 0 0 0 0 0 0 0 0 0 0 0 0 0 0 0 0 0 0 0 0 0 0 0 0 0 0
Wind_Speed
3 4 3 3 4 4 4 6 7 7 6 7 9 12 15 18 20 21 19 17 14 11 8 7 4 3 2 2 1 1 3 3 4 5 5 5 6 6 6 6 7 6 6 6
3 3 4 5 6 6 6 5 6 5 8 4 6 10 13 17 21 21 20 18 14 12 10 8 6 4 3 2 2 3 3 4 4 4 5 6 6 7 7 7 6 5 4 4
4 4 5 7 6 5 5 5 5 8 7 4 8 17 21 21 20 20 19 17 15 12 10 8 6 5 4 3 3 3 3 4 5 5 6 7 7 7 7 6 4 3 3 3
2 1 7 9 3 2 5 6 4 5 3 5 4 6 6 7 9 13 14 14 12 10 8 6 5 3 2 2 2 3 4 5 6 6 7 7 6 6 6 4 4 4 5 5
3 3 7 8 4 3 3 6 2 1 5 9 13 11 8 7 10 9 9 9 8 7 6 5 4 3 1 1 2 3 5 5 6 6 5 5 6 7 6 5 5 5 4 5
3 3 6 5 7 7 2 7 4 4 9 11 9 8 5 8 13 12 10 7 6 6 5 5 3 2 1 2 3 4 5 5 4 4 5 7 7 6 5 5 5 5 6 6
2 4 8 4 10 7 0 6 9 1 7 6 4 7 12 13 13 12 10 6 5 5 5 4 3 2 1 2 3 4 3 4 5 6 7 6 5 5 5 5 6 7 8 8
2 3 8 4 7 3 3 5 2 4 9 13 15 17 16 15 14 11 8 5 5 5 4 2 2 1 1 3 3 3 5 6 6 6 5 5 5 5 5 6 7 8 8 9
5 8 7 4 6 8 6 3 3 6 12 18 17 16 15 13 11 9 7 5 4 4 3 0 0 1 1 2 3 5 6 6 6 6 6 5 4 5 4 5 6 7 8 8
5 8 8 8 7 5 3 6 8 12 14 16 17 15 13 11 8 7 5 4 3 3 2 2 2 2 2 3 5 6 7 6 5 5 5 5 4 4 4 5 6 7 8 8
7 8 7 5 3 0 7 12 14 13 12 12 15 13 11 9 8 6 4 3 3 4 3 2 3 4 4 5 6 8 7 5 5 5 5 5 6 4 5 4 5 7 7 7
7 5 3 5 1 7 12 13 13 13 10 9 9 10 9 7 5 5 5 4 4 4 4 4 5 5 4 5 6 8 6 4 4 4 5 5 6 6 7 7 9 9 9 8
6 3 2 1 7 10 11 11 10 10 10 9 8 9 9 6 5 5 5 5 4 4 5 5 5 5 5 5 7 7 6 4 4 5 5 6 6 6 6 7 8 7 10 12
2 2 6 8 10 10 11 11 11 11 10 9 9 9 8 7 6 6 4 4 5 6 5 5 6 6 5 6 8 7 6 7 6 5 5 5 5 5 5 6 7 7 8 12
8 9 10 11 11 10 9 11 12 11 9 9 8 8 8 8 6 5 4 5 6 6 5 6 7 6 5 6 8 7 6 5 5 5 4 4 4 5 6 7 7 7 7 9
10 11 11 12 11 10 10 11 11 9 8 8 8 7 7 7 6 5 5 5 6 5 3 5 6 6 6 7 7 6 5 8 7 5 4 4 5 6 6 7 7 7 7 8
7 7 8 9 8 7 7 7 8 8 8 8 7 7 8 8 7 7 7 6 5 4 3 4 6 7 7 7 7 5 5 6 8 5 5 5 5 6 6 6 7 7 8 10
5 5 5 7 7 7 7 7 8 9 7 7 7 7 8 7 6 5 5 4 4 5 5 4 7 8 7 7 6 5 4 4 4 4 4 5 5 5 6 6 7 8 7 9
6 5 5 5 5 6 7 7 7 7 7 7 8 7 6 6 6 5 4 4 5 5 4 5 11 9 7 7 7 4 4 4 4 4 4 6 6 6 6 7 7 7 8 8
6 6 6 6 5 6 7 7 7 7 6 6 7 7 6 5 5 6 5 4 2 2 3 6 7 7 6 6 7 4 3 3 3 3 4 5 5 6 6 7 7 7 7 7
8 8 8 7 6 6 7 7 7 7 5 6 7 6 5 5 5 5 5 3 3 4 6 8 6 5 5 6 6 4 3 2 3 3 3 4 5 6 6 7 7 7 7 7
8 8 8 8 7 6 5 6 7 7 6 6 6 6 6 6 6 5 4 2 2 5 5 4 5 7 8 7 5 4 4 4 3 3 4 4 4 5 6 6 6 6 7 7
6 7 8 8 8 7 6 5 6 6 6 6 5 5 4 4 4 4 3 2 3 6 5 5 8 12 11 6 5 5 5 5 5 4 4 4 4 4 5 6 6 6 6 7
6 6 7 7 7 7 6 4 5 5 5 4 3 4 4 5 3 2 3 5 6 8 6 8 12 12 9 5 5 5 4 4 4 4 4 4 4 4 5 5 6 6 6 8
6 6 7 8 7 5 6 6 6 5 5 3 3 3 3 3 4 4 4 6 9 9 7 9 12 11 7 5 5 4 4 3 4 3 3 4 4 4 5 5 5 6 6 6
5 5 5 5 5 5 5 5 4 3 3 3 2 3 3 4 7 6 5 6 8 9 7 5 6 7 5 5 5 5 4 4 4 4 4 4 4 4 4 5 7 6 6 6
6 5 5 5 4 4 4 5 5 4 3 3 3 3 4 5 6 6 7 6 6 6 5 5 5 5 5 5 5 4 4 3 4 3 3 3 3 4 4 6 5 5 5 6
Wind_Direction
259 276 285 270 281 272 223 202 210 242 245 249 199 177 165 157 154 155 157 157 155 147 136 128 126 131 143 146 168 241 257 264 269 273 273 272 275 278 279 272 268 270 280 291
310 295 319 286 268 262 247 230 229 241 255 240 149 143 158 164 163 163 162 159 153 147 143 144 154 162 170 200 243 249 256 267 274 280 283 282 281 281 282 279 279 282 289 309
264 293 334 277 245 229 241 240 219 235 252 155 163 174 176 173 170 165 159 155 154 153 153 157 160 160 180 220 254 263 279 288 291 295 294 290 291 293 292 293 300 322 358 11
230 266 235 247 273 258 254 264 266 271 278 182 141 119 113 138 150 150 151 150 147 145 145 142 139 156 192 237 262 287 298 300 304 303 297 303 316 324 333 353 17 26 26 15
159 225 280 296 330 358 307 287 279 196 120 111 107 80 67 97 118 124 126 127 130 130 130 133 148 167 182 284 310 309 309 311 313 316 325 354 17 23 27 37 35 25 12 359
141 188 244 272 328 325 318 295 314 157 147 144 123 136 138 109 109 107 105 106 113 114 115 133 151 140 103 328 321 318 317 325 346 18 50 59 55 45 34 36 26 9 356 347
159 225 264 300 314 330 227 288 327 97 138 133 85 115 117 107 101 102 101 103 115 122 127 138 140 134 31 329 317 314 347 45 60 66 74 71 61 49 38 29 16 3 352 346
136 228 261 331 1 16 287 289 342 86 103 105 107 110 111 110 113 117 123 134 132 122 124 141 163 145 349 331 331 35 71 73 65 57 64 66 60 45 33 21 10 359 353 350
206 231 258 283 267 265 247 211 142 119 124 124 121 120 119 123 128 135 142 136 123 128 129 117 130 145 38 355 58 87 82 72 64 57 49 42 41 28 13 8 2 355 355 351
275 272 278 288 288 284 196 156 140 135 132 127 125 128 129 131 130 125 121 126 130 128 108 63 53 84 85 75 97 97 88 73 56 46 32 20 15 11 5 359 355 354 354 347
256 273 297 308 317 115 122 125 127 126 125 128 129 130 129 126 121 118 116 114 115 114 102 74 68 71 82 106 108 95 84 71 53 41 30 19 15 7 4 347 346 347 345 338
240 243 260 296 327 133 127 127 130 129 121 120 122 118 114 111 110 112 106 102 98 94 88 75 82 87 92 106 106 99 85 65 48 39 32 27 18 9 359 352 342 347 343 340
255 266 241 104 101 112 118 125 129 124 121 112 101 107 109 104 100 97 97 97 98 96 92 92 99 97 96 100 96 92 88 74 53 43 35 27 21 12 358 346 342 346 342 341
268 138 112 105 106 110 112 109 102 95 93 99 102 103 100 95 93 94 92 95 101 99 95 103 105 98 101 104 97 90 81 70 61 45 36 26 10 355 348 349 351 352 345 345
68 93 107 110 109 107 108 109 103 98 95 91 96 100 101 101 98 92 88 95 92 85 87 103 107 106 110 106 98 90 81 67 55 45 35 19 356 350 353 354 355 353 354 356
81 91 101 106 108 107 107 107 106 102 103 101 99 98 102 103 97 83 75 86 91 88 91 110 114 120 120 109 99 87 75 72 62 47 33 19 6 3 2 360 359 359 3 3
96 96 103 105 103 101 101 103 108 109 107 106 106 105 99 93 83 76 66 66 82 85 86 112 119 121 120 112 104 92 75 62 56 47 33 19 7 3 0 3 5 4 3 359
104 99 107 116 119 111 101 99 104 106 106 109 105 98 98 101 104 99 90 86 80 61 49 95 120 120 118 113 104 96 85 69 52 39 27 22 14 5 4 8 8 7 2 358
132 121 107 103 115 117 110 106 104 103 104 103 99 99 106 113 116 112 101 87 75 61 44 99 122 119 120 119 111 100 93 77 56 39 31 25 25 18 12 10 8 6 2 1
146 137 122 112 112 115 113 111 107 103 104 104 100 97 98 108 117 113 99 78 39 45 101 117 114 114 119 120 112 103 95 79 58 39 32 29 28 25 20 15 11 7 4 2
149 143 134 127 119 115 119 122 118 113 110 107 105 106 107 107 111 111 104 82 26 70 107 117 111 114 112 115 106 98 87 70 52 40 36 34 34 33 28 22 17 12 7 3
143 140 136 131 125 117 114 117 119 116 109 101 103 107 106 105 103 89 73 101 105 111 108 106 108 113 114 108 96 93 84 72 61 55 50 44 39 34 30 25 21 15 10 6
128 131 133 136 134 125 112 112 119 120 120 120 122 121 116 118 122 122 114 99 100 116 111 109 121 118 109 98 97 93 87 80 72 64 56 45 36 30 26 25 22 18 14 10
124 124 124 121 118 119 119 118 112 114 120 122 125 124 118 110 81 58 107 118 119 115 107 122 122 115 107 99 97 94 89 84 76 68 58 48 37 31 27 23 21 18 17 16
127 125 125 132 137 139 135 122 107 104 106 101 90 82 96 126 130 125 110 114 123 115 109 121 120 113 107 105 101 97 91 88 88 79 61 50 39 33 29 25 21 18 15 14
131 135 140 147 144 140 137 129 124 128 126 116 87 74 84 96 109 110 106 112 116 117 116 116 114 108 107 106 103 100 96 92 82 72 66 57 46 40 33 29 28 22 17 15
99 99 100 92 90 115 127 130 133 145 156 147 122 109 116 117 115 116 115 115 114 112 112 113 113 114 113 110 104 99 94 89 83 76 68 59 50 43 36 34 29 24 22 23